[[{"header":{"parameterUnit":"m.s-1","parameterCategory":2,"la1":30.2991,"la2":30.254,"lo1":-89.0895,"lo2":-89.0444,"dy":0.0017,"dx":0.0017,"nx":28,"ny":28,"refTime":"2024-02-11T09:00:00:Z","depth":"0","parameterNumber":2,"parameterNumberName":"U-component_of_CURRENTS"},"data":[0,0,0,0,0,0,0,0,0,0,0,0,0,0,0,0,0,0,0,0,0,0,0,0,0,0,0,0,0,0,0,0,0,0,0,0,0,0,0,0,0,0,0,0,0,0,0,0,0,0,0,0,0,0,0,0,0,0,0.2987,0.2987,0,0.2957,0.2957,0.2956,0.2926,0.2926,0.2926,0.2926,0.2894,0.2893,0.2892,0,0,0,0,0,0,0,0,0,0,0,0,0,0.2987,0.2987,0.2987,0.2987,0.2987,0.2958,0.2957,0.2956,0.2926,0.2926,0.2926,0.2926,0.2894,0.2893,0.2892,0,0,0,0,0,0,0,0,0,0,0,0,0,0.2972,0.2987,0.2987,0.2972,0.297,0.2958,0.2957,0.2956,0.2926,0.2926,0.2926,0.2926,0.2894,0.2893,0.2892,0.2887,0,0,0.2889,0.2888,0,0,0,0,0,0,0,0,0.2973,0.2971,0.2974,0.2973,0.2971,0.2949,0.2945,0.2934,0.2926,0.2939,0.2926,0.2926,0.2915,0.2912,0.2901,0.2885,0.2884,0.2888,0.2888,0.2887,0.2887,0,0,0,0,0,0,0,0.2974,0.2972,0.2972,0.2974,0.2972,0.2955,0.2953,0.2942,0.2925,0.2938,0.2936,0.2939,0.2913,0.2902,0.29,0.2884,0.2888,0.2887,0.2887,0.2886,0.2909,0.291,0,0,0,0,0,0,0.2987,0.2974,0.2973,0.2971,0.2976,0.2956,0.2953,0.2953,0.2925,0.2922,0.2939,0.2938,0.2904,0.2902,0.2899,0.2925,0.2887,0.2886,0.2885,0.2907,0.2909,0.291,0,0,0,0,0,0,0.2987,0.2987,0.2974,0.2975,0.2972,0.2957,0.2956,0.2952,0.2948,0.2927,0.2922,0.294,0.2904,0.2901,0.2898,0.2923,0.2886,0.2885,0.2906,0.2908,0.291,0.2956,0,0,0,0,0,0,0.2987,0.2987,0.2991,0.2976,0.2973,0.2973,0.2957,0.2952,0.2951,0.2949,0.2926,0.2922,0.2904,0.29,0.2897,0.292,0.2884,0.2904,0.2907,0.2909,0.2953,0.2959,0.2965,0,0,0,0,0,0.2987,0.299,0.2992,0.2992,0.298,0.2973,0.297,0.2955,0.2952,0.2951,0.2939,0.2923,0.2914,0.2899,0.2896,0.2919,0.2903,0.2906,0.2909,0.295,0.2958,0.2965,0,0,0,0,0,0,0.299,0.2987,0.2989,0.2991,0.2988,0.297,0.2969,0.2963,0.2951,0.2952,0.2929,0.2925,0.2936,0.2922,0.2907,0.2936,0.2911,0.2913,0.2943,0.2951,0.2956,0.2985,0.2883,0,0,0,0,0,0.2996,0.2998,0.2995,0.2998,0.3,0.2988,0.2985,0.2978,0.2967,0.2962,0.2947,0.2941,0.2945,0.2942,0.2937,0.2945,0.2961,0.2963,0.2969,0.2974,0.2996,0.304,0.3052,0.292,0.292,0.292,0,0,0.2997,0.2998,0.2999,0.3,0.2996,0.2999,0.2985,0.2985,0.2994,0.2961,0.2966,0.2959,0.2952,0.2963,0.2968,0.2954,0.302,0.2977,0.2982,0.3002,0.3044,0.3057,0.3069,0.2922,0.2922,0.2921,0,0,0.2994,0.3005,0.3002,0.3008,0.3012,0.3011,0.3016,0.3006,0.301,0.3008,0.3003,0.3017,0.2995,0.3013,0.3015,0.3055,0.3051,0.3049,0.3099,0.3141,0.3152,0.3163,0.3198,0.3211,0.305,0.3051,0.3051,0,0.2995,0.2996,0.3001,0.3004,0.3016,0.302,0.3026,0.3034,0.3025,0.3044,0.3016,0.3036,0.3026,0.3074,0.3088,0.3071,0.3088,0.3068,0.3149,0.316,0.317,0.3204,0.3218,0.3053,0.3053,0.3053,0.3052,0,0.2986,0.2996,0.2999,0.301,0.3024,0.3032,0.3052,0.3069,0.3072,0.3081,0.312,0.3109,0.3129,0.3128,0.3115,0.3189,0.3176,0.3152,0.3131,0.3186,0.3218,0.3232,0.3057,0.3056,0.3055,0.3054,0,0,0.2951,0.2986,0.2984,0.2998,0.3032,0.3035,0.3081,0.3119,0.3153,0.3157,0.3199,0.3219,0.3227,0.3235,0.3231,0.3266,0.3343,0.3241,0.3242,0.3277,0.3436,0.3431,0.3445,0.3327,0.333,0.3332,0.3429,0,0.2939,0.2948,0.2976,0.2997,0.3007,0.3055,0.3094,0.3138,0.3172,0.3214,0.325,0.3277,0.3265,0.3273,0.3316,0.3338,0.3382,0.332,0.3378,0.338,0.337,0.3462,0.3407,0.3489,0.3442,0.3445,0.3446,0,0.2907,0.2924,0.2941,0.2998,0.3008,0.3031,0.3109,0.3145,0.3235,0.326,0.3323,0.3344,0.3424,0.338,0.3483,0.3442,0.3455,0.3463,0.3466,0.3461,0.3402,0.3428,0.3516,0.3448,0.3467,0.3465,0.3464,0,0.2854,0.2895,0.2911,0.2929,0.2994,0.3027,0.3069,0.3158,0.3205,0.3299,0.3344,0.3428,0.3475,0.3518,0.3564,0.3523,0.3661,0.36,0.3615,0.3613,0.3581,0.3572,0.3614,0.3676,0.3676,0.3675,0.3675,0,0.2818,0.2827,0.2889,0.2893,0.2927,0.2993,0.3046,0.3107,0.3208,0.3274,0.3367,0.3436,0.3512,0.3599,0.3609,0.3682,0.3708,0.3662,0.3655,0.3594,0.3586,0.3535,0.3483,0.3679,0.3678,0.3677,0.3677,0,0.2746,0.2785,0.2804,0.2875,0.2897,0.292,0.3017,0.306,0.3175,0.327,0.3305,0.3467,0.3591,0.3671,0.3753,0.3752,0.3709,0.3806,0.3734,0.3718,0.364,0.3592,0.3462,0.3356,0.3837,0.3838,0.3838,0,0.2707,0.2711,0.277,0.2782,0.2812,0.2862,0.2898,0.3014,0.3078,0.3282,0.3328,0.3503,0.3612,0.3774,0.3819,0.388,0.3738,0.3836,0.3751,0.3669,0.3611,0.3404,0.3308,0.3722,0.3722,0.3721,0.3721,0,0.264,0.2663,0.2679,0.2705,0.2735,0.2772,0.2847,0.2895,0.305,0.3156,0.3313,0.3424,0.3642,0.3718,0.3838,0.3852,0.3672,0.383,0.3769,0.3566,0.3321,0.3204,0.3617,0.3718,0.3719,0.3719,0.3719,0.3719,0.2583,0.2577,0.26,0.2618,0.2645,0.2674,0.2677,0.2788,0.2878,0.3028,0.3208,0.3354,0.3589,0.3768,0.3752,0.3752,0.3646,0.3677,0.3641,0.3448,0.33,0.3714,0.3787,0.3787,0.3788,0.3788,0.3789,0,0.2497,0.2499,0.2514,0.2519,0.2508,0.2562,0.2624,0.2624,0.269,0.2909,0.3037,0.3296,0.3432,0.3575,0.3706,0.3607,0.3386,0.3512,0.3225,0.3149,0.3573,0.3527,0.3518,0.3518,0.3518,0.3518,0.3518,0.3518,0.2447,0.2418,0.2428,0.2375,0.238,0.2333,0.2343,0.2377,0.2505,0.2662,0.2826,0.2995,0.3328,0.355,0.3546,0.3465,0.3184,0.3058,0.2977,0.333,0.3341,0.3352,0.3298,0.3241,0.3241,0.2441,0.2435,0.2431]},{"header":{"parameterUnit":"m.s-1","parameterCategory":2,"la1":30.2991,"la2":30.254,"lo1":-89.0895,"lo2":-89.0444,"dy":0.0017,"dx":0.0017,"nx":28,"ny":28,"refTime":"2024-02-11T09:00:00:Z","depth":"0","parameterNumber":3,"parameterNumberName":"V-component_of_CURRENTS"},"data":[0,0,0,0,0,0,0,0,0,0,0,0,0,0,0,0,0,0,0,0,0,0,0,0,0,0,0,0,0,0,0,0,0,0,0,0,0,0,0,0,0,0,0,0,0,0,0,0,0,0,0,0,0,0,0,0,0,0,0.018,0.0179,0,0.01,0.0099,0.0098,0.0046,0.0045,0.0045,0.0045,-0.0051,-0.0053,-0.0056,0,0,0,0,0,0,0,0,0,0,0,0,0,0.0221,0.0221,0.018,0.0179,0.0178,0.01,0.0099,0.0098,0.0046,0.0045,0.0045,0.0045,-0.005,-0.0053,-0.0056,0,0,0,0,0,0,0,0,0,0,0,0,0,0.0177,0.0221,0.018,0.0144,0.014,0.01,0.0099,0.0097,0.0046,0.0045,0.0045,0.0045,-0.0049,-0.0053,-0.0056,-0.0072,0,0,-0.0067,-0.0069,0,0,0,0,0,0,0,0,0.018,0.0175,0.015,0.0147,0.0142,0.0084,0.0078,0.004,0.0046,0.008,0.0045,0.0045,-0.0006,-0.0013,-0.003,-0.0077,-0.0081,-0.0068,-0.007,-0.0071,-0.0072,0,0,0,0,0,0,0,0.0183,0.0178,0.0147,0.0149,0.0144,0.0109,0.0103,0.007,0.0038,0.0077,0.0073,0.0067,-0.0009,-0.0026,-0.0032,-0.0083,-0.0067,-0.0071,-0.0073,-0.0074,-0.0138,-0.0138,0,0,0,0,0,0,0.02,0.0181,0.0149,0.0145,0.0162,0.0109,0.0102,0.0102,0.0039,0.0029,0.0067,0.0065,-0.002,-0.0028,-0.0036,-0.004,-0.0071,-0.0075,-0.0077,-0.0139,-0.0138,-0.0138,0,0,0,0,0,0,0.0201,0.0198,0.0153,0.0162,0.0154,0.0109,0.0109,0.01,0.0086,0.0032,0.0022,0.0062,-0.002,-0.0031,-0.0058,-0.0045,-0.0076,-0.0079,-0.0139,-0.0139,-0.0138,-0.006,0,0,0,0,0,0,0.0203,0.0199,0.0203,0.0163,0.0154,0.0137,0.0109,0.0099,0.0083,0.0079,0.0024,0.0015,-0.0022,-0.0052,-0.0061,-0.005,-0.0082,-0.014,-0.0139,-0.0138,-0.0063,-0.0057,-0.0051,0,0,0,0,0,0.0204,0.0216,0.0204,0.02,0.0162,0.0138,0.013,0.0095,0.0083,0.0081,0.0046,0.0016,-0.0053,-0.0054,-0.0065,-0.0055,-0.014,-0.0139,-0.0138,-0.0066,-0.0058,-0.0051,0,0,0,0,0,0,0.0235,0.021,0.0196,0.0199,0.0174,0.013,0.0126,0.0103,0.0072,0.0071,0.0019,0.0008,-0.0012,-0.0044,-0.0044,-0.0071,-0.0101,-0.0102,-0.0042,-0.0035,-0.0029,-0.0003,-0.0085,0,0,0,0,0,0.0245,0.0247,0.0215,0.0217,0.0209,0.0169,0.0155,0.0134,0.0102,0.0088,0.0051,0.0014,-0.0017,-0.0033,-0.0068,-0.0082,-0.0112,-0.0082,-0.0076,-0.0071,-0.0057,-0.0093,-0.0089,-0.0135,-0.0135,-0.0135,0,0,0.0257,0.0244,0.0244,0.0223,0.0202,0.0199,0.016,0.0148,0.0147,0.0083,0.0072,0.0031,-0.0017,-0.0034,-0.0045,-0.0058,-0.0074,-0.007,-0.0065,-0.0054,-0.0091,-0.0087,-0.0083,-0.0134,-0.0134,-0.0134,0,0,0.0286,0.0273,0.0285,0.0271,0.0248,0.0225,0.0227,0.019,0.0176,0.0155,0.0114,0.0086,0.0033,0.0007,-0.0014,0.0005,-0.0043,-0.001,0.0043,0.0009,0.0012,0.0015,-0.0015,-0.0016,-0.0004,-0.0004,-0.0004,0,0.0302,0.0314,0.0284,0.0291,0.029,0.0244,0.0259,0.0236,0.0194,0.0193,0.0163,0.0099,0.0056,0.0044,0.0048,0.002,-0.0009,0.0022,0.0018,0.002,0.0022,-0.0011,-0.0012,0.0,-0.0,-0.0001,-0.0001,0,0.0339,0.0347,0.0355,0.0353,0.0345,0.0352,0.0322,0.0314,0.0289,0.0263,0.0243,0.018,0.0146,0.0124,0.0089,0.0086,0.0058,0.0028,0.0004,0.0031,-0.0005,-0.0008,0.0006,0.0004,0.0003,0.0002,0,0,0.0382,0.0384,0.0386,0.0404,0.0384,0.0387,0.039,0.0386,0.0401,0.0345,0.0357,0.0292,0.0258,0.0232,0.0183,0.0151,0.0132,0.0102,0.0098,0.0079,0.0057,0.0053,0.0048,0.0098,0.0098,0.0098,0.0028,0,0.0423,0.046,0.0446,0.0484,0.0506,0.0476,0.049,0.0478,0.0453,0.045,0.0386,0.0368,0.0299,0.0285,0.0244,0.0163,0.0128,0.0154,0.0027,0.0023,0.0022,0.0046,0.0084,0.0026,0.0025,0.0024,0.0024,0,0.0469,0.0489,0.0539,0.0569,0.0578,0.0594,0.0619,0.0623,0.0601,0.0582,0.0546,0.0486,0.0438,0.037,0.025,0.0269,0.0175,0.0103,0.0098,0.0068,0.0014,-0.0004,0.002,-0.0151,0.0019,0.0019,0.0019,0,0.0527,0.0558,0.0607,0.0615,0.0636,0.0663,0.0676,0.067,0.0694,0.0667,0.0678,0.0592,0.0565,0.0435,0.0286,0.0265,0.0152,0.0099,0.0005,0.0003,-0.0001,-0.0003,-0.0149,0.0013,0.0013,0.0014,0.0014,0,0.0583,0.0619,0.0643,0.067,0.0742,0.0732,0.0801,0.0797,0.0809,0.0859,0.0756,0.0773,0.058,0.0487,0.0328,0.0173,0.0181,0.0026,-0.001,0.0027,0.0028,-0.0151,-0.0248,0.0011,0.0011,0.0012,0.0012,0,0.0634,0.0647,0.0708,0.075,0.0773,0.0825,0.0889,0.0932,0.0934,0.0995,0.0993,0.0913,0.0797,0.06,0.0398,0.0249,-0.0008,0.002,0.008,0.0053,-0.0199,-0.0292,-0.0457,-0.0541,-0.0097,-0.0097,-0.0098,0,0.0662,0.0701,0.0772,0.0817,0.0842,0.0915,0.0969,0.0994,0.105,0.1093,0.1134,0.1043,0.1011,0.0716,0.0429,0.0158,-0.0015,0.0003,-0.0035,-0.0196,-0.0327,-0.039,-0.0453,-0.0016,-0.0016,-0.0016,-0.0016,0,0.0718,0.0745,0.0795,0.089,0.096,0.1044,0.1128,0.1196,0.1244,0.1305,0.137,0.135,0.1086,0.0841,0.0467,0.0265,-0.0103,-0.0,-0.0186,-0.0283,-0.0342,-0.0444,0.0007,-0.0013,-0.0014,-0.0014,-0.0014,-0.0014,0.076,0.0807,0.0877,0.097,0.1053,0.1168,0.1257,0.1352,0.1471,0.1593,0.1565,0.1606,0.1242,0.0744,0.0428,-0.009,-0.0111,-0.0243,-0.0343,-0.0393,-0.0467,-0.0004,-0.0055,-0.0055,-0.0055,-0.0056,-0.0056,0,0.0808,0.0863,0.095,0.1064,0.1165,0.1203,0.1358,0.1459,0.1617,0.1753,0.1827,0.1732,0.1261,0.0765,0.007,-0.0337,-0.0499,-0.0567,-0.0659,-0.0712,-0.0312,-0.0301,-0.0384,-0.0384,-0.0384,-0.0384,-0.0383,-0.0383,0.0836,0.0922,0.0969,0.1141,0.1225,0.1376,0.1475,0.163,0.177,0.1964,0.2053,0.2083,0.1756,0.0456,-0.0445,-0.0679,-0.0959,-0.1018,-0.1187,-0.0928,-0.0906,-0.0885,-0.0898,-0.1105,-0.1106,-0.1521,-0.1525,-0.1529]}],[{"header":{"parameterUnit":"m.s-1","parameterCategory":2,"la1":30.2991,"la2":30.254,"lo1":-89.0895,"lo2":-89.0444,"dy":0.0017,"dx":0.0017,"nx":28,"ny":28,"refTime":"2024-02-11T09:00:00:Z","depth":"2","parameterNumber":2,"parameterNumberName":"U-component_of_CURRENTS"},"data":[0,0,0,0,0,0,0,0,0,0,0,0,0,0,0,0,0,0,0,0,0,0,0,0,0,0,0,0,0,0,0,0,0,0,0,0,0,0,0,0,0,0,0,0,0,0,0,0,0,0,0,0,0,0,0,0,0,0,0.253,0.253,0,0.2542,0.2542,0.2542,0.2536,0.2536,0.2536,0.2536,0.2533,0.2533,0.2533,0,0,0,0,0,0,0,0,0,0,0,0,0,0.2484,0.2485,0.253,0.253,0.2531,0.2542,0.2542,0.2542,0.2536,0.2536,0.2536,0.2536,0.2533,0.2533,0.2533,0,0,0,0,0,0,0,0,0,0,0,0,0,0.2498,0.2485,0.253,0.2532,0.2532,0.2542,0.2542,0.2542,0.2536,0.2536,0.2536,0.2536,0.2533,0.2533,0.2533,0.2534,0,0,0.2533,0.2533,0,0,0,0,0,0,0,0,0.2497,0.25,0.2531,0.2532,0.2532,0.254,0.2525,0.2539,0.2536,0.2532,0.2536,0.2536,0.2536,0.2536,0.2534,0.2533,0.2533,0.2533,0.2533,0.2533,0.2533,0,0,0,0,0,0,0,0.2496,0.2499,0.2532,0.2531,0.2532,0.2526,0.2527,0.2527,0.2532,0.2532,0.2533,0.2538,0.2536,0.2534,0.2534,0.2533,0.2533,0.2533,0.2533,0.2533,0.2583,0.2584,0,0,0,0,0,0,0.2502,0.2498,0.2532,0.2533,0.2517,0.2527,0.2529,0.2535,0.2532,0.2532,0.2538,0.2538,0.2534,0.2534,0.2534,0.2574,0.2533,0.2533,0.2532,0.2582,0.2583,0.2585,0,0,0,0,0,0,0.2501,0.2505,0.2531,0.2518,0.2521,0.2528,0.2535,0.2536,0.2546,0.2537,0.2537,0.255,0.2534,0.2534,0.2548,0.2572,0.2532,0.2532,0.258,0.2582,0.2584,0.2629,0,0,0,0,0,0,0.2499,0.2504,0.2513,0.2518,0.2522,0.2546,0.2536,0.2536,0.255,0.255,0.2547,0.2546,0.2534,0.2548,0.2547,0.2572,0.2532,0.2578,0.2581,0.2583,0.2626,0.2633,0.2638,0,0,0,0,0,0.2498,0.2508,0.2513,0.2518,0.2533,0.2547,0.2548,0.255,0.2551,0.2558,0.2559,0.2546,0.2564,0.2549,0.2548,0.2573,0.2577,0.258,0.2583,0.2623,0.2631,0.2638,0,0,0,0,0,0,0.249,0.2509,0.2515,0.253,0.2543,0.2547,0.2557,0.2559,0.2566,0.2569,0.2558,0.2557,0.2582,0.2572,0.2555,0.2597,0.2571,0.2574,0.2602,0.2609,0.2615,0.2636,0.2532,0,0,0,0,0,0.2495,0.2509,0.2524,0.2538,0.2548,0.2556,0.2563,0.2567,0.2574,0.2577,0.2575,0.258,0.2593,0.2597,0.2602,0.2619,0.2631,0.2638,0.2644,0.2649,0.2667,0.2705,0.2717,0.2595,0.2595,0.2595,0,0,0.2495,0.2509,0.2516,0.2538,0.2548,0.2565,0.2559,0.2578,0.2596,0.2576,0.2599,0.2601,0.2603,0.2626,0.2636,0.2621,0.269,0.2653,0.2657,0.2673,0.271,0.2722,0.2732,0.2597,0.2597,0.2597,0,0,0.2498,0.2518,0.2528,0.2546,0.257,0.2579,0.2589,0.2603,0.2617,0.2634,0.2635,0.2659,0.2658,0.2678,0.2684,0.273,0.2723,0.2727,0.2772,0.2809,0.2819,0.2828,0.2857,0.2868,0.2728,0.2728,0.2728,0,0.2496,0.2516,0.2533,0.2552,0.2572,0.2589,0.2608,0.2626,0.2643,0.2666,0.2647,0.2689,0.2688,0.2738,0.2755,0.2745,0.2759,0.274,0.2817,0.2826,0.2835,0.2862,0.2874,0.2731,0.273,0.273,0.273,0,0.2506,0.2528,0.254,0.2571,0.2594,0.2616,0.2648,0.2674,0.2689,0.2707,0.2755,0.2759,0.2787,0.2791,0.2785,0.2854,0.2842,0.2821,0.2797,0.285,0.2875,0.2887,0.2734,0.2733,0.2733,0.2732,0,0,0.2479,0.2535,0.2538,0.2558,0.261,0.2623,0.2676,0.2725,0.2762,0.2783,0.283,0.2863,0.2875,0.2886,0.2888,0.2921,0.2991,0.2901,0.2901,0.2927,0.3071,0.3041,0.3051,0.2979,0.2982,0.2984,0.3062,0,0.248,0.2513,0.2548,0.2584,0.2606,0.2657,0.2701,0.2751,0.2792,0.2841,0.2879,0.2917,0.2909,0.2924,0.2963,0.2988,0.3025,0.2972,0.3018,0.302,0.2985,0.3065,0.2838,0.2888,0.3074,0.3076,0.3077,0,0.247,0.2498,0.2533,0.2596,0.2611,0.2642,0.2723,0.2766,0.2856,0.2887,0.295,0.2975,0.3053,0.3017,0.311,0.3075,0.3087,0.3096,0.3099,0.3067,0.3013,0.2866,0.2902,0.3097,0.3095,0.3094,0.3092,0,0.2424,0.2484,0.2512,0.2534,0.2608,0.2645,0.2691,0.2781,0.283,0.2927,0.2973,0.3052,0.31,0.3138,0.318,0.3148,0.3265,0.3215,0.3202,0.3199,0.3015,0.2993,0.3279,0.3279,0.3279,0.3278,0.3278,0,0.2403,0.2423,0.2494,0.2507,0.2548,0.2618,0.2678,0.2741,0.2841,0.2906,0.2996,0.306,0.3135,0.3208,0.3218,0.3266,0.3302,0.324,0.323,0.3024,0.3003,0.3186,0.3174,0.3281,0.3281,0.328,0.328,0,0.2343,0.2389,0.2421,0.25,0.2525,0.2554,0.2656,0.27,0.2815,0.2907,0.2943,0.309,0.3195,0.3263,0.3336,0.3322,0.3355,0.3353,0.3112,0.3073,0.3249,0.3239,0.3348,0.3348,0.3348,0.3348,0.3348,0,0.2313,0.2325,0.2395,0.2411,0.2448,0.2506,0.2546,0.2662,0.2724,0.2916,0.2957,0.311,0.3191,0.3316,0.3326,0.3361,0.3384,0.3152,0.3055,0.3284,0.3264,0.3253,0.3243,0.2822,0.2818,0.2814,0.2811,0,0.2257,0.2284,0.2309,0.2345,0.2381,0.2421,0.2501,0.2544,0.2694,0.2788,0.2921,0.3006,0.3164,0.3119,0.3194,0.3169,0.313,0.3083,0.3393,0.2849,0.2797,0.2774,0.2779,0.278,0.2783,0.2785,0.2787,0.2788,0.2208,0.2207,0.224,0.2266,0.23,0.2328,0.2331,0.2435,0.2512,0.2632,0.2784,0.2842,0.2924,0.293,0.2863,0.282,0.3025,0.2879,0.2886,0.2897,0.2831,0.2783,0.2751,0.2753,0.2756,0.2758,0.276,0,0.2131,0.2139,0.216,0.2174,0.2165,0.2226,0.2282,0.2272,0.2318,0.2472,0.2561,0.2427,0.2444,0.2506,0.2416,0.2442,0.2367,0.2325,0.2201,0.2239,0.2271,0.2166,0.1913,0.1909,0.1906,0.1903,0,0,0.2087,0.2065,0.2075,0.203,0.2044,0.2002,0.2007,0.2023,0.2099,0.2119,0.2146,0.2355,0.2474,0.2161,0.2146,0.2011,0.2091,0.1932,0.2629,0.2524,0.2551,0.263,0.2519,0,0,0,0,0]},{"header":{"parameterUnit":"m.s-1","parameterCategory":2,"la1":30.2991,"la2":30.254,"lo1":-89.0895,"lo2":-89.0444,"dy":0.0017,"dx":0.0017,"nx":28,"ny":28,"refTime":"2024-02-11T09:00:00:Z","depth":"2","parameterNumber":3,"parameterNumberName":"V-component_of_CURRENTS"},"data":[0,0,0,0,0,0,0,0,0,0,0,0,0,0,0,0,0,0,0,0,0,0,0,0,0,0,0,0,0,0,0,0,0,0,0,0,0,0,0,0,0,0,0,0,0,0,0,0,0,0,0,0,0,0,0,0,0,0,0.0096,0.0096,0,0.0025,0.0024,0.0023,-0.002,-0.002,-0.002,-0.002,-0.0105,-0.0107,-0.0109,0,0,0,0,0,0,0,0,0,0,0,0,0,0.0127,0.0127,0.0096,0.0096,0.0095,0.0025,0.0024,0.0023,-0.002,-0.002,-0.002,-0.002,-0.0104,-0.0106,-0.0109,0,0,0,0,0,0,0,0,0,0,0,0,0,0.0089,0.0127,0.0096,0.0066,0.0063,0.0026,0.0024,0.0023,-0.002,-0.002,-0.002,-0.002,-0.0103,-0.0106,-0.0109,-0.0127,0,0,-0.0119,-0.0121,0,0,0,0,0,0,0,0,0.0092,0.0088,0.0071,0.0068,0.0064,0.0013,0.0004,-0.0028,-0.002,0.001,-0.002,-0.002,-0.0066,-0.0072,-0.0087,-0.0131,-0.0135,-0.012,-0.0122,-0.0123,-0.0124,0,0,0,0,0,0,0,0.0094,0.009,0.0067,0.0071,0.0066,0.0033,0.0028,-0.0003,-0.0028,0.0008,0.0005,-0.0001,-0.0068,-0.0084,-0.0089,-0.0136,-0.012,-0.0123,-0.0125,-0.0126,-0.0188,-0.0188,0,0,0,0,0,0,0.011,0.0093,0.0069,0.0065,0.008,0.0033,0.0027,0.0028,-0.0027,-0.0035,-0.0001,-0.0003,-0.0078,-0.0085,-0.0092,-0.0098,-0.0123,-0.0126,-0.0128,-0.0189,-0.0188,-0.0188,0,0,0,0,0,0,0.0111,0.0109,0.0072,0.0078,0.0071,0.0033,0.0034,0.0027,0.0014,-0.0033,-0.0042,-0.0005,-0.0078,-0.0088,-0.0112,-0.0102,-0.0128,-0.0131,-0.0189,-0.0189,-0.0188,-0.0121,0,0,0,0,0,0,0.0112,0.0109,0.0114,0.0079,0.0072,0.0057,0.0034,0.0026,0.0012,0.0009,-0.004,-0.0048,-0.0079,-0.0107,-0.0115,-0.0107,-0.0133,-0.0189,-0.0189,-0.0188,-0.0124,-0.0118,-0.0114,0,0,0,0,0,0.0113,0.0123,0.0114,0.0111,0.008,0.0058,0.005,0.0021,0.0012,0.0009,-0.0021,-0.0046,-0.0109,-0.0109,-0.0119,-0.0112,-0.019,-0.0189,-0.0188,-0.0126,-0.0119,-0.0114,0,0,0,0,0,0,0.0138,0.0119,0.0109,0.0112,0.009,0.0051,0.0047,0.0027,0.0,-0.0,-0.0045,-0.0055,-0.0073,-0.0102,-0.0101,-0.0128,-0.0153,-0.0154,-0.0102,-0.0096,-0.0091,-0.0069,-0.0136,0,0,0,0,0,0.0147,0.015,0.0123,0.0125,0.0118,0.0084,0.0071,0.0053,0.0026,0.0013,-0.0019,-0.0052,-0.0079,-0.0094,-0.0125,-0.014,-0.0168,-0.0141,-0.0136,-0.0132,-0.0121,-0.0156,-0.0153,-0.0186,-0.0186,-0.0186,0,0,0.0156,0.0147,0.0148,0.013,0.0112,0.0108,0.0076,0.0065,0.0063,0.0009,-0.0002,-0.0037,-0.008,-0.0096,-0.0107,-0.0118,-0.0138,-0.0131,-0.0127,-0.0118,-0.0155,-0.0152,-0.0149,-0.0185,-0.0185,-0.0185,0,0,0.0179,0.0171,0.0181,0.0168,0.0148,0.0128,0.013,0.0097,0.0086,0.0066,0.0032,0.0008,-0.004,-0.0063,-0.0082,-0.0068,-0.0112,-0.0081,-0.0037,-0.0071,-0.0069,-0.0067,-0.0098,-0.0099,-0.0077,-0.0077,-0.0077,0,0.0191,0.0203,0.0178,0.0183,0.0183,0.0144,0.0156,0.0135,0.0099,0.0097,0.0073,0.0016,-0.0022,-0.0035,-0.0031,-0.0056,-0.0083,-0.0055,-0.0064,-0.0063,-0.0062,-0.0094,-0.0096,-0.0074,-0.0074,-0.0074,-0.0075,0,0.0219,0.0228,0.0234,0.0232,0.0225,0.0229,0.0205,0.0198,0.0177,0.0155,0.0135,0.0081,0.0051,0.0032,0.0003,-0.0004,-0.0028,-0.0054,-0.0075,-0.0054,-0.009,-0.0094,-0.0069,-0.007,-0.0071,-0.0072,0,0,0.0254,0.0255,0.0258,0.0273,0.0256,0.0259,0.0261,0.0256,0.0268,0.022,0.0229,0.0172,0.0143,0.012,0.0078,0.0048,0.0026,0.0006,0.0003,-0.0017,-0.0048,-0.0061,-0.0066,-0.0003,-0.0004,-0.0004,-0.0075,0,0.0286,0.0316,0.0305,0.0337,0.0355,0.0332,0.0343,0.0332,0.031,0.0306,0.0251,0.0234,0.0176,0.0165,0.0126,0.0055,0.002,0.0048,-0.0072,-0.0075,-0.0083,-0.007,-0.0037,-0.0098,-0.0079,-0.008,-0.008,0,0.0322,0.0339,0.038,0.0408,0.0415,0.0429,0.0451,0.0455,0.0433,0.0417,0.0383,0.0332,0.0287,0.0231,0.0119,0.0139,0.0056,-0.0008,-0.0013,-0.0048,-0.0094,-0.0117,-0.0106,-0.0087,-0.0086,-0.0086,-0.0085,0,0.0369,0.0396,0.0438,0.0445,0.0464,0.0488,0.05,0.0493,0.0515,0.0489,0.0496,0.0417,0.0393,0.0277,0.0143,0.0129,0.0016,-0.0024,-0.0115,-0.0118,-0.0124,-0.0126,-0.0105,-0.0105,-0.0105,-0.0104,-0.0104,0,0.0415,0.0446,0.0469,0.0492,0.0556,0.0548,0.0608,0.0604,0.0613,0.0654,0.0563,0.0573,0.0403,0.0315,0.0175,0.0028,0.0037,-0.01,-0.0134,-0.0101,-0.0099,-0.0118,-0.0119,-0.0107,-0.0106,-0.0106,-0.0105,0,0.0458,0.0469,0.0522,0.0561,0.0582,0.0628,0.0687,0.0724,0.0723,0.0774,0.0771,0.0692,0.0578,0.0401,0.0217,0.0086,-0.0066,-0.0124,-0.007,-0.0096,-0.0189,-0.0185,-0.0236,-0.0237,-0.0237,-0.0238,-0.0239,0,0.048,0.0515,0.058,0.0621,0.0644,0.071,0.076,0.078,0.0829,0.0855,0.089,0.0796,0.075,0.0473,0.022,-0.0025,-0.0063,-0.016,-0.0184,-0.0173,-0.0201,-0.0196,-0.0191,-0.0172,-0.0172,-0.0172,-0.0172,0,0.0529,0.0554,0.0599,0.0687,0.0751,0.0827,0.0903,0.0962,0.1001,0.1041,0.1083,0.1048,0.0796,0.0553,0.0214,0.005,-0.012,-0.0168,-0.0168,-0.0139,-0.0117,-0.0143,-0.014,-0.0171,-0.0171,-0.0171,-0.0171,-0.0171,0.0566,0.0608,0.0673,0.0758,0.0835,0.0939,0.1016,0.1095,0.1189,0.1271,0.1234,0.1198,0.0916,0.0493,0.0189,-0.0125,-0.0114,-0.0223,-0.0222,-0.022,-0.0195,-0.0176,-0.0236,-0.0237,-0.0237,-0.0237,-0.0238,0,0.0609,0.0658,0.0738,0.0841,0.0932,0.097,0.1107,0.1185,0.1306,0.1377,0.141,0.1163,0.0882,0.0555,0.0089,-0.0192,-0.0212,-0.0278,-0.0243,-0.024,-0.0238,-0.0214,-0.0261,-0.0262,-0.0263,-0.0263,0,0,0.0633,0.0711,0.0752,0.0905,0.0984,0.1117,0.1205,0.1318,0.1401,0.1471,0.1461,0.1413,0.1006,0.0666,0.0278,0.0007,-0.005,-0.0043,0.001,0.0101,0.0106,-0.017,-0.0125,0,0,0,0,0]}],[{"header":{"parameterUnit":"m.s-1","parameterCategory":2,"la1":30.2991,"la2":30.254,"lo1":-89.0895,"lo2":-89.0444,"dy":0.0017,"dx":0.0017,"nx":28,"ny":28,"refTime":"2024-02-11T09:00:00:Z","depth":"4","parameterNumber":2,"parameterNumberName":"U-component_of_CURRENTS"},"data":[0,0,0,0,0,0,0,0,0,0,0,0,0,0,0,0,0,0,0,0,0,0,0,0,0,0,0,0,0,0,0,0,0,0,0,0,0,0,0,0,0,0,0,0,0,0,0,0,0,0,0,0,0,0,0,0,0,0,0.1711,0.1711,0,0.1778,0.1779,0.1779,0.1835,0.1836,0.1836,0.1837,0.1913,0.1914,0.1916,0,0,0,0,0,0,0,0,0,0,0,0,0,0.1614,0.1616,0.1711,0.1712,0.1713,0.1778,0.1779,0.1779,0.1835,0.1836,0.1837,0.1838,0.1913,0.1914,0.1916,0,0,0,0,0,0,0,0,0,0,0,0,0,0.1664,0.1616,0.171,0.175,0.1754,0.1778,0.1779,0.178,0.1835,0.1836,0.1837,0.1838,0.1912,0.1914,0.1916,0.1905,0,0,0.1922,0.1923,0,0,0,0,0,0,0,0,0.1661,0.1668,0.1743,0.1747,0.1752,0.1801,0.1773,0.1823,0.1834,0.1802,0.1837,0.1839,0.1877,0.1882,0.1889,0.1908,0.1911,0.1922,0.1923,0.1924,0.1925,0,0,0,0,0,0,0,0.1658,0.1665,0.1735,0.1744,0.1749,0.1759,0.1767,0.1782,0.183,0.1805,0.1809,0.182,0.1879,0.1887,0.1891,0.1913,0.1922,0.1924,0.1925,0.1926,0.2039,0.204,0,0,0,0,0,0,0.1653,0.1662,0.1733,0.1737,0.1711,0.176,0.1769,0.1782,0.183,0.1839,0.1819,0.1822,0.1883,0.1889,0.1894,0.1983,0.1924,0.1926,0.1927,0.2037,0.2039,0.2041,0,0,0,0,0,0,0.1651,0.1659,0.173,0.1702,0.1713,0.176,0.1775,0.1783,0.1829,0.1841,0.185,0.1861,0.1884,0.1891,0.1944,0.1982,0.1927,0.1928,0.2035,0.2038,0.204,0.2097,0,0,0,0,0,0,0.1648,0.1658,0.1683,0.1702,0.1714,0.1768,0.1774,0.1784,0.1832,0.1838,0.1879,0.1885,0.1885,0.1941,0.1946,0.1984,0.193,0.2032,0.2036,0.2039,0.2092,0.2101,0.2108,0,0,0,0,0,0.1644,0.1667,0.1683,0.1693,0.1741,0.1769,0.1776,0.1812,0.1833,0.1857,0.1891,0.1886,0.1966,0.1944,0.1949,0.1989,0.2031,0.2035,0.2039,0.2089,0.2099,0.2108,0,0,0,0,0,0,0.1638,0.1675,0.1694,0.1728,0.1759,0.178,0.1812,0.1832,0.1877,0.1896,0.1906,0.1914,0.1976,0.1975,0.195,0.2033,0.1999,0.2004,0.2035,0.2045,0.2053,0.2061,0.1932,0,0,0,0,0,0.1647,0.1679,0.1708,0.1741,0.176,0.1793,0.1817,0.1841,0.1874,0.1897,0.1925,0.1959,0.1989,0.2013,0.2036,0.2078,0.208,0.2109,0.2117,0.2124,0.2135,0.2168,0.218,0.2055,0.2055,0.2054,0,0,0.1654,0.1681,0.17,0.1743,0.1773,0.1803,0.1811,0.1859,0.1895,0.1897,0.1967,0.199,0.2007,0.2058,0.2086,0.2068,0.2161,0.2129,0.2134,0.2143,0.2174,0.2186,0.2197,0.2057,0.2057,0.2056,0,0,0.167,0.1711,0.1738,0.1768,0.1819,0.1838,0.186,0.1903,0.1941,0.1995,0.2013,0.2063,0.2104,0.213,0.2144,0.2211,0.2202,0.2222,0.227,0.2302,0.2313,0.2322,0.234,0.235,0.2226,0.2226,0.2226,0,0.1681,0.1719,0.1751,0.1783,0.1817,0.1857,0.1892,0.193,0.1988,0.2024,0.2029,0.2117,0.2137,0.22,0.2229,0.2229,0.2241,0.223,0.2312,0.2321,0.2329,0.2345,0.2356,0.2229,0.2229,0.2229,0.2228,0,0.1704,0.175,0.1772,0.1827,0.1864,0.1906,0.1954,0.2007,0.2054,0.2087,0.2171,0.2199,0.2252,0.2269,0.2272,0.2349,0.2335,0.2316,0.2284,0.2345,0.2358,0.2368,0.2234,0.2233,0.2232,0.2231,0,0,0.1685,0.1772,0.1784,0.1819,0.1897,0.1922,0.1997,0.2065,0.2119,0.2182,0.2248,0.2314,0.234,0.236,0.2376,0.2411,0.2482,0.2399,0.2399,0.2411,0.2552,0.2401,0.2396,0.2479,0.2481,0.2483,0.2536,0,0.1699,0.1761,0.1807,0.1875,0.1909,0.1978,0.2037,0.2109,0.2173,0.2246,0.2301,0.2366,0.2371,0.2407,0.2447,0.2478,0.2512,0.2469,0.2496,0.2497,0.235,0.2404,0.249,0.2543,0.2545,0.2547,0.2548,0,0.1699,0.1745,0.1813,0.1901,0.1924,0.1977,0.2083,0.2144,0.2252,0.2303,0.2383,0.2422,0.251,0.2489,0.2579,0.2554,0.2567,0.2576,0.2578,0.2424,0.2364,0.2471,0.2566,0.2565,0.2563,0.2562,0.2561,0,0.1651,0.1746,0.1803,0.1835,0.1939,0.1997,0.2062,0.2171,0.2231,0.2352,0.2406,0.2496,0.2557,0.2595,0.2637,0.2618,0.271,0.2676,0.2549,0.2539,0.2633,0.2622,0.273,0.2729,0.2729,0.2729,0.2729,0,0.1628,0.1677,0.1793,0.1821,0.1895,0.1983,0.2073,0.2151,0.2266,0.2332,0.244,0.2492,0.2591,0.2651,0.2664,0.264,0.2735,0.2568,0.2546,0.2655,0.2647,0.2639,0.2628,0.2731,0.2731,0.273,0.273,0,0.1561,0.1639,0.1707,0.1831,0.1874,0.193,0.2069,0.2122,0.2253,0.2344,0.2388,0.252,0.2594,0.2665,0.273,0.2662,0.2657,0.2622,0.2747,0.2729,0.2456,0.2447,0.2475,0.247,0.2466,0.2462,0.2459,0,0.1528,0.156,0.1695,0.1737,0.1803,0.1901,0.1959,0.2098,0.2156,0.2334,0.236,0.2489,0.2558,0.2528,0.2614,0.2621,0.2593,0.2568,0.25,0.2456,0.2432,0.243,0.2427,0.2453,0.2452,0.2451,0.245,0,0.1463,0.1529,0.1583,0.1669,0.1743,0.1807,0.1912,0.1937,0.2091,0.2226,0.2271,0.2307,0.2386,0.2425,0.2456,0.2456,0.2569,0.2525,0.2532,0.2468,0.243,0.241,0.2412,0.2435,0.2438,0.2439,0.244,0,0.1416,0.1435,0.1517,0.1579,0.1661,0.1691,0.1759,0.1824,0.1892,0.2086,0.2093,0.223,0.2355,0.2341,0.2368,0.2361,0.2319,0.2232,0.2254,0.227,0.218,0.21,0.1992,0,0,0,0,0,0.1356,0.1364,0.1417,0.147,0.1545,0.1595,0.1711,0.1783,0.1931,0.1907,0.1994,0.2051,0.2091,0.2163,0.2114,0.2289,0.2336,0.2222,0.2248,0.2357,0.2373,0.2286,0,0,0,0,0,0,0.1311,0.1356,0.1376,0.1366,0.1383,0.1448,0.1517,0.1622,0.1619,0.1776,0.1808,0.1925,0.1997,0.2094,0.2072,0.2095,0.2069,0.2311,0.2305,0.2348,0.2363,0.2376,0.2291,0,0,0,0,0]},{"header":{"parameterUnit":"m.s-1","parameterCategory":2,"la1":30.2991,"la2":30.254,"lo1":-89.0895,"lo2":-89.0444,"dy":0.0017,"dx":0.0017,"nx":28,"ny":28,"refTime":"2024-02-11T09:00:00:Z","depth":"4","parameterNumber":3,"parameterNumberName":"V-component_of_CURRENTS"},"data":[0,0,0,0,0,0,0,0,0,0,0,0,0,0,0,0,0,0,0,0,0,0,0,0,0,0,0,0,0,0,0,0,0,0,0,0,0,0,0,0,0,0,0,0,0,0,0,0,0,0,0,0,0,0,0,0,0,0,0.0096,0.0096,0,0.0046,0.0045,0.0045,0.0015,0.0015,0.0015,0.0015,-0.0052,-0.0053,-0.0055,0,0,0,0,0,0,0,0,0,0,0,0,0,0.0115,0.0115,0.0096,0.0096,0.0095,0.0046,0.0045,0.0045,0.0015,0.0015,0.0015,0.0015,-0.0051,-0.0053,-0.0055,0,0,0,0,0,0,0,0,0,0,0,0,0,0.0089,0.0115,0.0096,0.0075,0.0073,0.0046,0.0045,0.0044,0.0015,0.0015,0.0015,0.0015,-0.005,-0.0053,-0.0056,-0.0071,0,0,-0.0064,-0.0065,0,0,0,0,0,0,0,0,0.009,0.0088,0.0079,0.0077,0.0074,0.0038,0.0027,0.0005,0.0015,0.0036,0.0015,0.0015,-0.0023,-0.0027,-0.0038,-0.0074,-0.0077,-0.0064,-0.0065,-0.0067,-0.0067,0,0,0,0,0,0,0,0.0092,0.009,0.0075,0.0078,0.0076,0.0051,0.0047,0.0023,0.0006,0.0034,0.0032,0.0028,-0.0024,-0.0035,-0.004,-0.0078,-0.0064,-0.0066,-0.0068,-0.0069,-0.0124,-0.0124,0,0,0,0,0,0,0.0103,0.0092,0.0077,0.0074,0.0084,0.0051,0.0047,0.0049,0.0007,0.0001,0.0029,0.0027,-0.0031,-0.0037,-0.0042,-0.005,-0.0067,-0.0069,-0.0071,-0.0124,-0.0124,-0.0124,0,0,0,0,0,0,0.0104,0.0103,0.0079,0.0082,0.0077,0.0051,0.0053,0.0048,0.0039,0.0003,-0.0003,0.0026,-0.0031,-0.0039,-0.0059,-0.0053,-0.007,-0.0073,-0.0124,-0.0124,-0.0124,-0.0073,0,0,0,0,0,0,0.0105,0.0103,0.0108,0.0083,0.0078,0.0068,0.0053,0.0047,0.0037,0.0035,-0.0002,-0.0008,-0.0032,-0.0055,-0.0061,-0.0057,-0.0075,-0.0124,-0.0124,-0.0124,-0.0075,-0.0071,-0.0068,0,0,0,0,0,0.0106,0.0113,0.0109,0.0107,0.0085,0.0068,0.0063,0.0043,0.0037,0.0035,0.0012,-0.0007,-0.0058,-0.0057,-0.0065,-0.0061,-0.0124,-0.0124,-0.0124,-0.0076,-0.0072,-0.0068,0,0,0,0,0,0,0.0122,0.011,0.0105,0.0108,0.0092,0.0064,0.006,0.0047,0.0027,0.0027,-0.0007,-0.0015,-0.0031,-0.0053,-0.0051,-0.0076,-0.0094,-0.0096,-0.0055,-0.0051,-0.0048,-0.0029,-0.0077,0,0,0,0,0,0.0129,0.0133,0.0114,0.0117,0.0112,0.0088,0.0078,0.0066,0.0045,0.0036,0.0011,-0.0015,-0.0037,-0.0049,-0.0074,-0.0088,-0.0111,-0.0091,-0.0087,-0.0084,-0.0074,-0.0107,-0.0105,-0.0123,-0.0123,-0.0123,0,0,0.0137,0.0131,0.0133,0.0121,0.0108,0.0104,0.0082,0.0073,0.0072,0.0032,0.0023,-0.0004,-0.0038,-0.0053,-0.0062,-0.007,-0.0092,-0.0084,-0.008,-0.0073,-0.0106,-0.0104,-0.0103,-0.0123,-0.0123,-0.0123,0,0,0.0152,0.0149,0.0156,0.0147,0.0133,0.0119,0.012,0.0096,0.0088,0.0073,0.0047,0.0027,-0.0011,-0.003,-0.0045,-0.0038,-0.0073,-0.0049,-0.0016,-0.0047,-0.0045,-0.0045,-0.0072,-0.0074,-0.0046,-0.0046,-0.0046,0,0.0161,0.017,0.0154,0.0156,0.0157,0.013,0.0138,0.0123,0.0096,0.0095,0.0078,0.0031,0.0001,-0.0011,-0.0009,-0.0029,-0.0053,-0.0027,-0.0041,-0.0041,-0.0041,-0.007,-0.0072,-0.0044,-0.0044,-0.0044,-0.0044,0,0.0178,0.0187,0.019,0.019,0.0186,0.0189,0.0171,0.0167,0.0153,0.0136,0.012,0.0078,0.0053,0.0038,0.0016,0.0006,-0.0013,-0.0033,-0.0049,-0.0036,-0.0067,-0.0071,-0.004,-0.0041,-0.0042,-0.0042,0,0,0.02,0.0204,0.0206,0.0219,0.0208,0.021,0.0212,0.0209,0.0219,0.0182,0.0189,0.0143,0.0121,0.0103,0.007,0.0044,0.0021,0.0011,0.0008,-0.001,-0.0047,-0.0053,-0.0058,-0.0003,-0.0004,-0.0004,-0.0069,0,0.0221,0.0243,0.0237,0.0263,0.0275,0.0262,0.0272,0.0264,0.0249,0.0245,0.0203,0.019,0.0146,0.0138,0.0104,0.0045,0.0014,0.0041,-0.0062,-0.0065,-0.0067,-0.0062,-0.0005,-0.0072,-0.0073,-0.0073,-0.0074,0,0.0242,0.0257,0.0288,0.0315,0.032,0.0334,0.0354,0.0358,0.0342,0.033,0.0303,0.0264,0.0227,0.0185,0.0088,0.0107,0.0039,-0.0014,-0.0018,-0.0042,-0.0077,-0.0089,-0.0081,-0.0081,-0.008,-0.008,-0.0079,0,0.0272,0.0296,0.033,0.0336,0.0356,0.0378,0.0392,0.0388,0.0407,0.0387,0.0393,0.0328,0.0308,0.0212,0.0101,0.0094,-0.0009,-0.0037,-0.0109,-0.0111,-0.0108,-0.0109,-0.0107,-0.0107,-0.0106,-0.0106,-0.0106,0,0.0298,0.0325,0.0352,0.0371,0.0425,0.0423,0.0475,0.0474,0.0484,0.0514,0.0446,0.0446,0.0314,0.0236,0.0123,0.0001,0.0003,-0.0098,-0.0126,-0.0086,-0.0083,-0.0111,-0.0111,-0.0109,-0.0108,-0.0108,-0.0107,0,0.0321,0.0336,0.0381,0.0421,0.0443,0.0483,0.054,0.0569,0.0572,0.0609,0.0608,0.0538,0.0435,0.0294,0.0139,0.0042,-0.0083,-0.0131,-0.0069,-0.0093,-0.0171,-0.0167,-0.0216,-0.0216,-0.0217,-0.0217,-0.0218,0,0.0332,0.0359,0.0425,0.0462,0.0487,0.0547,0.0591,0.0615,0.0651,0.0665,0.0687,0.0604,0.0538,0.0324,0.016,-0.0057,-0.0094,-0.0162,-0.0175,-0.0159,-0.0182,-0.0177,-0.0173,-0.0219,-0.0219,-0.0219,-0.0219,0,0.0357,0.0386,0.0424,0.0505,0.0564,0.0631,0.0697,0.0732,0.0765,0.0767,0.0758,0.0643,0.0526,0.0338,0.0169,0.001,-0.0119,-0.0169,-0.0169,-0.0183,-0.0164,-0.0184,-0.0179,-0.0221,-0.0221,-0.0221,-0.0221,0,0.038,0.0414,0.0472,0.0543,0.0621,0.0696,0.0728,0.0775,0.0812,0.0827,0.0821,0.0689,0.061,0.0373,0.0218,0.0061,0.0011,-0.0048,-0.0056,-0.0055,0.0003,0.0051,0.0042,0,0,0,0,0,0.0397,0.0438,0.0504,0.0585,0.0661,0.0712,0.0791,0.0815,0.0852,0.0857,0.0844,0.0735,0.0508,0.0407,0.025,0.0185,-0.003,-0.0008,-0.0105,-0.0233,-0.023,-0.0191,0,0,0,0,0,0,0.0408,0.0469,0.0504,0.0608,0.0669,0.0759,0.0815,0.0839,0.0844,0.0854,0.0738,0.0687,0.0465,0.0602,0.0245,0.0196,0.011,-0.0112,-0.0116,-0.0234,-0.0232,-0.023,-0.0189,0,0,0,0,0]}]]